Terug naar catalogus

SL-8 R/B

ActiefLEO
NORAD 6061·ROCKET BODY·🇷🇺 Russia

Gelanceerd Jun 23, 1972 vanaf Plesetsk Cosmodrome

Loading…

Volgende Passages (komende 24 uur)

TLE

VersSource: Space-Track

Epoch: Sep 14, 2026, 11:40 UTC

1 06061U 72043B   26257.48625704  .00000058  00000-0  25455-4 0  9995
2 06061  74.0543  59.4380 0018508  61.1735 299.1276 14.42198625844354

Volg SL-8 R/B in realtime met AllMySat

Download on the App Store